RH
11 10 10 10 10 9 10 10 10 11 12 13 14 14 14 15 15 15 15 15 16 16 17 19 20 21 22 22 21 22 23 29 36 45 53 61 68 73 77 78 78 78 78 75 72 69 67 66 64 59 54 48 42 38 38 41 43 44 45 46 46 45 44 43 40 37 34 32 31 32 33 32 31 31 32 36 39 42 42 44 48 52 52 48 45 41 38 35 34 35 39 43 45 47 48 49 50 50 48 45 42 41 39
10 10 9 9 9 9 8 9 9 10 11 11 12 13 14 15 15 15 15 17 17 17 17 18 18 19 20 21 22 22 22 24 28 35 43 51 59 66 72 76 78 79 79 78 75 72 68 66 65 63 59 53 46 40 36 37 39 41 43 45 46 47 47 47 45 41 37 33 30 29 30 30 29 29 29 32 35 38 40 41 44 48 51 50 46 42 39 36 34 34 37 41 44 45 47 48 51 53 51 47 43 40 38
9 9 8 9 8 8 8 8 8 9 10 10 11 13 14 15 15 15 16 18 19 19 18 18 17 17 17 19 21 22 23 23 24 27 33 41 49 57 64 70 75 79 80 80 78 75 72 68 65 63 62 58 52 46 40 37 37 38 40 43 45 47 48 49 48 46 42 37 33 29 28 28 27 27 27 29 31 33 35 37 40 44 48 50 48 44 40 37 35 34 35 39 42 44 46 46 50 54 53 49 44 40 38
9 8 8 8 8 8 8 8 8 9 9 10 11 12 14 14 14 16 17 18 18 18 18 18 17 17 16 16 18 20 22 23 23 24 26 32 39 47 55 62 69 75 78 79 79 78 76 72 68 65 63 60 57 52 47 41 38 37 38 41 44 47 49 51 51 51 48 43 38 33 30 28 27 27 27 28 29 31 34 35 38 41 46 49 49 46 41 40 37 35 34 37 40 43 44 44 48 51 53 49 45 41 38
9 8 8 8 8 8 8 8 8 9 9 9 10 11 14 14 15 16 17 18 18 18 19 18 18 17 17 16 16 17 19 21 23 24 24 26 31 37 45 53 60 67 72 76 78 79 78 76 73 69 65 63 61 57 53 48 43 39 38 40 44 47 50 52 53 53 53 49 45 39 34 31 30 29 29 30 31 33 36 37 39 43 48 51 50 47 44 45 43 39 34 36 39 41 43 43 45 47 49 48 45 42 39
10 8 8 8 8 8 8 8 8 8 9 9 10 11 13 15 16 17 17 18 18 18 18 18 17 17 17 16 16 17 18 19 21 22 24 25 26 30 35 43 50 57 64 70 74 77 79 78 76 73 70 67 64 61 59 53 48 44 40 41 44 47 50 52 53 54 55 54 50 45 39 36 34 33 33 33 33 35 37 37 39 43 48 51 50 49 46 48 49 46 39 36 37 40 42 43 43 44 45 45 44 42 40
10 9 9 8 8 8 8 8 8 8 8 9 10 11 13 15 16 17 17 17 17 16 16 16 16 16 16 16 16 16 17 18 19 21 22 23 25 27 29 34 40 47 54 61 67 73 77 78 78 76 74 71 68 65 62 58 53 48 44 43 45 47 50 52 53 54 55 56 54 50 45 39 36 36 36 36 36 37 37 36 37 40 44 47 49 48 46 49 52 52 47 39 37 39 41 42 42 42 42 43 43 42 41
10 9 9 9 9 9 8 8 8 8 8 8 9 10 11 14 16 16 16 16 15 14 14 14 14 15 15 15 16 16 16 17 18 19 21 22 23 25 27 29 33 38 44 51 59 66 72 75 77 78 76 74 72 69 66 61 56 51 47 46 46 47 49 51 52 53 54 55 55 54 50 44 40 37 37 37 38 38 37 35 35 37 39 43 46 47 47 49 52 54 53 45 40 38 40 42 42 42 42 42 41 41 41
10 10 10 10 9 9 9 9 9 8 8 8 9 10 11 13 14 14 14 14 13 12 12 12 12 13 13 14 15 15 16 16 17 19 20 21 23 24 25 27 29 32 36 42 49 57 64 70 74 77 77 76 74 72 70 65 60 54 50 47 47 47 49 51 51 52 52 54 55 55 53 49 44 40 38 38 38 37 36 34 33 34 36 41 46 49 49 50 52 55 56 51 44 39 39 41 42 43 43 42 41 41 41
10 10 10 10 10 10 9 9 9 9 9 9 9 9 11 12 12 12 12 12 11 10 10 10 10 11 11 12 13 14 15 15 16 18 19 21 22 23 24 25 26 29 31 36 41 48 55 62 69 74 77 77 76 75 73 69 65 59 53 50 48 47 48 50 50 51 51 52 54 55 55 53 48 45 42 42 40 38 36 33 31 31 34 41 46 50 53 53 53 55 57 55 50 44 39 40 42 43 43 43 42 41 41
10 10 10 10 10 10 10 10 10 10 9 9 9 10 10 10 10 10 10 9 9 9 9 9 9 9 9 10 11 12 13 14 15 16 18 19 22 23 24 24 25 27 29 31 36 41 47 54 61 68 73 76 77 77 75 72 69 65 58 53 49 48 48 49 50 50 49 50 52 54 55 55 52 49 47 46 45 42 38 35 34 34 35 42 48 52 54 54 54 55 57 58 56 51 43 40 41 43 44 43 43 43 42
10 10 10 10 10 11 11 11 10 10 10 10 10 10 10 10 9 9 9 9 9 9 9 9 9 9 9 9 10 10 12 13 14 15 16 18 20 22 24 25 25 26 27 29 32 36 40 47 53 60 67 72 76 78 77 75 73 69 64 58 52 48 47 48 48 49 48 48 49 51 54 56 57 55 52 49 47 45 42 39 39 39 40 46 50 53 54 55 55 55 56 58 59 57 48 42 41 42 43 43 44 44 43
10 10 10 10 10 11 11 11 11 11 11 10 10 11 11 10 9 9 9 8 9 9 9 9 9 9 9 9 9 9 10 11 13 14 15 16 18 19 22 24 25 26 26 27 30 32 36 41 46 52 59 66 71 76 78 77 75 73 69 63 57 51 47 47 47 48 48 47 47 49 53 57 60 60 58 53 49 46 44 43 43 45 46 50 54 55 54 54 55 55 55 57 60 60 54 45 42 42 42 43 44 44 44
10 10 10 11 11 11 11 11 11 11 11 10 10 11 11 10 10 9 9 9 9 9 9 9 9 9 10 10 9 9 10 11 12 13 14 15 16 17 19 22 24 26 27 28 29 30 33 37 41 46 51 58 65 71 75 77 77 75 72 68 63 56 50 48 47 47 47 46 46 47 50 56 61 63 62 57 53 49 47 46 47 48 50 54 57 58 56 55 54 55 55 55 58 60 58 50 45 42 42 43 44 44 44
10 10 10 11 11 11 11 11 11 11 11 11 11 11 11 11 10 10 10 9 9 9 9 9 9 9 9 10 10 10 10 10 11 12 13 14 15 16 17 19 22 25 27 29 29 30 31 34 38 42 46 51 58 64 70 74 76 77 76 72 68 63 58 53 49 47 47 46 46 47 48 53 59 64 66 62 58 54 51 50 50 51 52 56 60 61 59 56 54 54 54 54 56 59 60 54 48 44 43 44 44 44 44
10 10 11 10 10 10 10 10 10 10 10 10 10 10 11 11 11 10 10 10 9 9 9 9 9 9 9 9 9 10 10 10 11 12 12 14 15 16 17 18 20 22 26 28 30 31 31 32 35 39 43 46 51 57 63 68 73 76 77 75 72 68 64 59 54 50 48 47 46 46 47 51 58 64 68 66 63 59 56 54 53 52 52 56 61 63 62 58 55 55 54 52 54 56 61 57 52 46 44 44 44 44 44
10 10 10 10 10 10 10 10 10 10 9 9 9 10 10 10 10 10 10 10 10 10 9 9 9 9 9 9 9 10 10 10 11 11 12 13 14 15 16 17 18 20 23 26 29 31 32 32 34 37 41 43 47 51 55 61 67 72 76 76 75 71 67 64 59 55 51 49 47 46 46 49 55 62 68 68 66 63 60 57 55 53 53 56 59 62 62 59 57 56 55 53 53 56 61 60 55 49 46 45 44 44 44
9 9 9 9 9 9 9 9 9 9 9 9 9 9 9 9 9 9 9 10 10 10 10 10 9 9 9 9 9 10 10 10 11 11 12 13 14 15 16 17 18 19 20 23 26 29 32 33 34 36 38 41 44 47 50 55 61 67 72 75 75 74 71 67 62 58 54 52 50 48 47 47 52 58 65 69 69 66 63 60 57 54 54 56 58 60 60 60 59 58 56 54 53 56 62 62 58 52 48 46 44 44 44
8 8 8 9 9 9 9 9 8 8 8 8 8 8 8 8 8 8 9 9 9 10 10 10 10 10 9 9 9 9 9 10 11 11 12 13 14 15 16 17 18 19 20 21 23 27 30 33 34 35 36 39 41 44 47 50 55 61 67 71 73 75 74 71 65 60 56 54 53 51 50 49 51 55 61 67 69 69 66 63 59 57 56 56 58 59 59 58 59 58 57 55 54 56 61 62 60 55 50 47 45 44 44
7 7 7 8 8 8 8 8 8 8 7 7 7 7 7 7 7 7 8 8 8 9 9 9 10 10 10 9 9 9 9 9 10 11 12 12 14 15 17 17 18 19 20 20 22 24 27 31 34 35 36 37 39 42 45 47 51 55 61 66 70 73 75 73 69 64 59 56 55 54 53 52 52 53 57 63 67 69 68 65 62 59 58 58 58 58 58 57 57 58 58 56 56 57 61 63 62 58 52 48 45 43 44
6 6 6 6 7 7 7 7 7 7 7 7 7 7 7 7 7 7 7 7 7 8 8 9 9 9 9 9 9 9 9 9 9 10 11 12 13 15 16 18 19 19 20 20 21 23 25 28 31 34 36 37 37 39 42 44 47 51 55 60 65 69 72 74 72 69 64 59 56 55 55 54 53 53 54 58 62 65 68 67 64 62 61 60 59 58 58 57 57 57 58 58 58 59 61 65 65 62 56 50 46 44 43
6 6 6 6 6 6 6 6 6 6 6 6 7 7 7 7 7 6 6 6 7 7 7 8 8 9 9 9 9 9 9 9 9 9 10 11 12 14 16 18 19 20 20 21 21 22 23 26 29 32 35 37 37 37 39 42 44 47 51 55 60 64 68 72 73 72 69 63 59 56 55 56 55 54 53 55 58 61 64 65 65 64 64 63 61 59 58 57 57 58 59 60 60 60 62 65 66 65 61 54 49 45 43
5 5 5 5 5 5 5 5 5 5 6 6 6 7 7 7 7 6 6 6 6 6 6 6 7 7 8 8 9 9 9 9 9 9 9 10 11 13 15 17 19 20 21 21 22 22 23 24 26 29 33 36 37 37 36 38 41 45 47 51 55 59 63 67 71 72 72 68 63 58 55 56 57 57 55 54 56 58 60 63 64 65 65 65 64 61 59 57 57 59 62 62 62 62 62 64 66 67 65 60 54 48 45
5 5 5 5 5 4 4 4 5 5 5 6 6 7 7 7 6 6 6 6 5 5 5 6 6 7 7 8 8 9 9 10 9 9 9 9 10 11 13 16 18 20 22 22 22 22 23 23 25 27 30 33 35 37 36 36 38 41 45 47 50 54 58 62 66 70 72 70 67 62 58 57 57 58 57 56 56 57 58 60 62 64 66 66 66 64 62 58 58 59 62 64 64 64 63 64 66 67 68 65 59 53 48
4 4 4 4 4 4 4 4 4 5 6 7 7 7 7 6 6 6 5 5 5 5 5 5 6 6 6 7 7 8 9 9 10 10 10 9 9 10 11 14 16 19 22 23 23 23 23 23 24 25 27 30 33 35 36 35 36 38 42 45 47 50 53 57 61 65 68 69 69 66 61 59 58 58 59 58 58 57 57 59 61 63 66 67 67 66 64 60 58 58 60 63 64 64 63 64 65 66 67 67 64 59 54
4 4 4 4 4 3 3 4 4 5 7 9 9 8 7 6 5 4 4 5 5 6 6 6 6 6 6 6 7 7 8 9 9 10 10 10 10 10 10 12 14 17 20 23 24 24 24 23 23 24 25 27 30 33 36 36 35 36 38 42 45 47 50 52 56 59 63 66 68 68 65 61 59 58 59 59 59 59 58 59 61 63 66 67 68 67 66 63 60 58 57 60 63 64 64 65 65 65 66 67 66 63 59
4 4 3 3 3 3 3 3 4 5 9 11 10 9 8 6 5 4 4 4 5 6 6 6 6 6 6 6 6 6 7 8 9 9 10 10 10 10 10 10 12 14 18 21 24 25 25 24 24 24 24 25 27 30 33 35 36 36 36 40 43 45 47 49 52 55 58 62 65 67 67 64 62 59 58 59 60 60 60 60 61 63 66 68 69 69 68 66 63 61 59 60 62 64 65 66 65 64 64 66 66 66 63
4 4 3 3 3 3 3 3 4 6 10 12 11 9 7 5 4 3 4 4 5 5 6 6 6 6 6 6 6 6 7 7 8 9 10 10 10 10 10 10 10 12 14 18 22 25 26 26 25 24 24 24 25 28 30 33 35 36 36 39 42 44 45 47 49 51 54 57 61 64 67 66 65 62 60 59 61 62 63 62 62 63 65 67 69 70 70 70 68 66 63 63 63 65 67 68 67 66 65 65 66 66 65
4 4 4 4 3 3 3 3 5 7 11 12 11 9 7 5 4 4 4 4 5 6 6 6 6 6 6 7 7 7 7 8 8 9 9 10 10 10 10 10 10 10 12 15 19 23 26 27 26 25 24 24 24 26 28 31 34 36 37 39 42 44 44 45 47 49 51 54 56 59 63 66 66 65 62 61 62 63 64 64 63 63 64 66 68 70 71 72 72 71 69 67 67 67 68 70 71 70 68 67 67 66 66
5 4 4 4 4 4 3 4 5 7 11 11 10 8 5 4 4 5 6 6 6 7 7 6 6 6 6 7 7 7 8 9 9 9 9 10 11 11 11 10 10 10 10 12 16 19 24 26 27 27 26 24 24 25 26 29 32 35 37 39 42 44 45 45 45 46 48 51 53 56 59 63 65 66 65 64 63 64 64 65 65 65 65 66 68 69 71 73 74 74 73 72 71 70 69 70 71 72 71 70 69 68 67
5 5 5 5 5 5 4 4 5 7 10 9 8 7 5 4 5 6 7 8 9 10 9 7 6 6 6 7 7 8 10 10 10 10 10 10 10 11 12 11 11 10 10 11 13 16 20 24 27 28 27 26 25 24 25 27 30 33 36 38 42 45 48 46 45 44 46 48 51 53 55 58 62 64 65 65 64 64 64 65 65 65 66 66 68 69 71 72 74 75 75 75 76 75 72 71 72 73 73 72 71 69 68
6 6 6 6 6 5 5 5 6 7 8 7 6 5 5 5 6 7 8 10 12 13 11 9 7 7 7 7 8 10 11 11 11 11 10 10 11 11 12 12 11 11 11 11 12 14 17 21 24 27 28 27 26 25 25 26 28 31 34 37 41 46 49 48 45 43 43 46 48 50 52 54 57 60 62 63 64 64 64 64 64 65 66 67 68 69 70 72 74 76 77 76 76 76 75 74 73 73 74 74 73 72 71
7 7 7 7 7 7 6 6 6 7 7 6 6 6 5 6 6 8 10 12 13 13 11 9 8 8 8 9 12 13 12 12 11 11 11 11 11 12 12 12 12 12 12 11 11 12 14 17 21 25 28 28 28 26 25 25 27 29 32 35 41 46 50 50 47 43 41 44 47 49 50 51 53 55 59 61 62 64 65 65 65 65 67 67 68 70 71 72 74 76 77 78 78 78 78 76 75 74 74 75 76 75 75
8 8 8 8 8 8 7 7 7 7 6 6 6 7 7 7 8 9 11 12 13 12 9 8 7 8 9 13 15 15 13 11 11 11 11 11 11 12 12 12 12 12 12 12 11 12 12 15 18 22 26 28 28 28 26 26 26 28 30 34 40 45 48 49 48 44 41 43 45 48 49 49 50 51 54 57 60 62 64 65 66 66 67 68 69 71 72 73 74 76 78 78 79 79 79 77 76 76 76 76 77 77 78
9 9 9 9 9 9 9 8 8 8 7 7 8 8 9 9 9 10 11 12 12 10 8 6 6 8 11 14 17 17 15 12 11 11 11 11 11 11 12 12 12 13 12 12 12 12 12 13 15 18 23 26 28 28 27 26 26 27 29 33 38 43 47 48 49 47 43 43 44 47 48 49 49 49 51 54 56 59 62 64 66 67 68 68 69 71 73 74 75 76 77 78 78 78 78 76 75 76 76 76 77 78 79
10 10 10 10 10 10 10 9 9 9 8 9 9 10 11 11 11 11 11 12 12 9 7 6 7 10 15 17 18 19 17 16 14 12 11 10 10 10 11 12 13 13 12 12 12 12 12 12 13 16 19 23 26 28 28 27 26 27 28 32 37 43 46 48 49 49 46 44 44 45 47 48 49 49 49 51 53 56 59 62 65 68 69 69 69 71 73 75 76 76 77 77 78 78 79 76 76 75 76 76 77 78 79
11 11 11 11 11 11 11 10 10 10 10 10 11 12 13 13 12 12 12 12 11 9 7 8 10 14 19 19 18 18 20 20 18 15 12 10 9 10 11 13 13 13 13 13 12 12 12 12 12 14 16 20 23 27 28 28 27 27 27 31 36 41 46 48 49 49 49 46 44 44 45 47 49 50 50 50 51 53 56 60 64 68 70 70 70 71 72 73 74 75 76 77 77 77 77 76 75 75 75 76 77 78 78
12 12 12 12 12 11 11 11 10 10 11 11 13 15 15 14 14 13 13 12 10 9 9 11 15 19 21 19 18 19 22 22 20 17 13 10 9 10 12 13 14 14 13 13 13 12 12 12 12 13 14 17 20 24 27 28 28 28 27 29 34 39 44 47 49 50 51 49 46 44 43 45 48 50 51 51 52 52 54 58 62 67 71 72 72 72 72 72 73 73 74 76 76 75 73 72 72 74 75 76 77 78 79
12 12 12 12 12 12 11 11 11 11 11 13 15 16 16 15 14 14 14 12 11 11 12 16 20 22 21 19 19 21 23 23 21 18 15 13 11 12 13 14 14 14 14 13 13 12 12 12 12 13 13 15 18 21 25 27 28 28 28 29 32 36 41 46 50 51 52 51 48 45 43 44 47 49 51 53 53 54 54 56 60 65 70 73 74 74 73 73 73 73 74 74 73 72 70 68 69 72 77 78 78 78 79
12 12 12 12 12 12 11 11 11 12 12 14 15 16 15 15 15 14 14 13 12 13 16 21 23 22 20 20 21 22 24 23 21 18 16 15 15 15 15 15 14 14 13 13 12 12 12 12 12 13 13 14 16 18 22 25 28 29 29 29 30 34 39 45 49 52 54 53 50 47 44 45 47 49 52 55 56 56 55 56 58 61 67 72 75 76 74 75 75 74 74 73 71 69 66 64 66 70 76 79 80 80 80
12 12 12 12 12 11 11 11 11 12 13 14 15 15 15 15 15 15 15 13 13 15 19 23 24 23 21 21 22 23 24 23 21 18 16 17 18 18 18 16 14 13 13 12 12 12 12 12 13 13 14 14 15 16 19 23 27 29 29 29 30 32 37 43 49 53 55 55 53 50 46 46 48 51 54 56 58 59 58 56 56 58 62 68 74 76 76 76 76 76 75 74 71 68 64 63 65 69 74 80 84 86 85
11 11 11 11 11 11 11 11 11 12 13 14 15 15 15 15 16 16 15 14 16 18 22 23 25 25 24 24 24 24 24 23 20 18 17 19 20 21 20 17 15 13 12 12 12 12 12 13 13 14 15 15 15 16 18 22 25 28 30 29 30 32 35 41 48 53 56 57 55 52 49 48 50 54 57 58 60 61 60 58 56 55 57 64 69 74 77 77 77 77 75 75 72 69 65 63 64 68 75 83 88 91 90
11 11 11 11 11 11 10 10 11 11 12 13 14 14 15 15 15 15 15 16 18 21 25 25 25 26 27 26 25 25 25 23 21 19 19 20 21 21 21 19 16 13 12 11 11 12 12 13 14 15 16 16 16 16 17 20 23 26 29 30 31 32 34 39 45 51 56 59 58 55 52 50 51 55 58 59 61 63 63 60 57 55 54 58 64 70 75 77 78 78 76 75 74 72 68 65 64 67 79 88 91 92 93
10 10 11 11 10 10 10 10 10 11 12 13 13 14 15 15 15 15 15 16 19 22 25 25 26 27 27 27 26 26 26 24 22 20 20 21 22 22 21 20 18 15 12 11 11 11 12 13 14 15 17 18 18 18 18 18 20 23 28 30 31 32 33 37 42 48 54 60 62 61 57 53 53 54 56 58 61 64 65 63 60 56 53 55 59 64 70 75 78 79 78 76 75 74 72 68 67 72 85 90 91 91 91
10 10 10 10 10 10 10 10 11 11 12 12 13 13 14 14 14 14 14 15 20 23 25 26 27 27 27 27 27 27 26 25 24 22 22 22 22 22 23 23 21 17 14 12 11 11 12 13 15 16 18 20 21 21 20 19 20 23 26 29 31 32 33 36 40 45 51 57 62 64 63 58 55 54 55 57 60 63 66 65 63 59 54 53 54 59 65 71 76 79 80 77 76 75 74 71 74 80 89 91 92 92 91
10 10 10 10 10 10 11 11 11 11 12 12 12 12 12 12 13 12 13 14 19 23 26 27 27 27 27 27 28 28 27 25 24 24 23 23 23 24 25 25 23 20 15 13 12 12 12 14 16 17 19 21 22 22 22 21 21 22 24 27 30 32 33 35 38 42 47 53 60 65 67 63 59 56 55 55 57 60 65 66 65 62 57 53 52 55 62 69 74 78 79 78 76 74 74 74 80 87 91 92 93 93 93
10 11 11 11 11 11 11 11 12 12 12 12 11 11 11 11 11 12 13 15 19 23 26 27 27 27 27 27 28 28 28 26 25 25 24 24 25 25 26 26 24 21 17 15 13 13 13 15 17 19 21 22 23 23 23 22 22 22 23 25 28 30 32 34 36 39 43 48 56 64 68 66 63 59 57 56 55 56 61 64 65 64 61 55 52 54 60 67 72 76 78 79 77 75 74 76 83 89 91 92 93 93 94
11 11 12 12 12 12 12 12 12 12 12 12 12 12 12 11 11 12 14 18 22 25 26 27 27 27 27 27 27 28 28 27 26 26 26 26 26 26 26 26 25 22 19 17 15 15 15 16 18 20 22 24 24 23 23 22 21 21 21 23 25 28 30 33 35 38 41 44 50 59 66 68 67 64 60 58 55 54 56 61 64 65 64 58 55 55 60 65 70 74 78 77 77 75 73 75 81 87 91 92 92 91 92
11 12 12 13 13 13 13 13 13 13 13 13 13 12 12 12 12 14 16 21 24 26 27 27 27 27 27 27 27 27 27 27 26 26 27 27 27 26 25 26 25 24 22 20 18 17 16 18 19 21 23 24 24 23 22 21 20 19 19 20 22 24 27 30 34 36 39 40 45 53 64 69 70 69 67 63 59 56 55 58 62 65 66 62 59 58 61 64 68 73 77 77 76 74 73 74 78 83 88 90 90 89 90
12 13 13 14 14 14 14 14 14 14 14 14 14 14 13 13 14 16 18 24 26 27 27 27 27 27 27 27 27 27 26 26 27 27 27 27 27 27 26 26 25 24 23 22 20 19 18 20 21 22 22 22 22 21 20 19 19 19 18 18 19 21 24 27 30 33 36 36 40 47 59 68 72 72 70 67 64 61 58 57 59 63 67 67 64 62 64 65 67 71 74 76 77 77 75 74 76 79 84 87 88 88 88
13 14 14 15 15 15 15 15 15 15 15 15 14 14 14 15 16 18 22 26 28 28 28 27 26 26 28 28 28 27 27 26 27 27 28 28 27 27 26 26 25 24 24 23 22 21 21 21 21 21 20 19 19 19 19 19 19 19 19 18 17 18 20 23 27 30 33 34 36 41 50 62 69 73 72 70 67 64 62 60 60 61 65 68 69 68 67 66 67 69 71 74 77 78 77 76 75 76 79 82 85 86 86
14 15 15 16 16 16 16 16 16 16 16 15 14 14 15 16 18 21 26 28 28 28 27 28 27 27 26 28 28 27 27 26 27 27 28 28 28 27 27 26 25 23 23 24 24 23 22 21 20 19 18 18 19 20 21 21 21 21 20 19 18 17 17 19 22 26 29 30 32 35 42 55 64 71 74 73 70 67 66 65 63 62 64 68 70 71 71 71 71 69 69 73 76 78 79 77 76 76 76 79 80 82 84
15 15 16 17 17 17 17 17 17 17 17 16 15 15 15 17 20 24 28 29 29 29 27 25 25 26 27 27 28 28 27 26 26 27 28 28 28 27 27 26 25 24 24 25 25 24 22 22 20 19 18 19 21 22 23 23 23 22 21 20 19 18 17 17 19 21 24 27 29 32 36 47 58 68 74 75 73 72 71 69 66 63 63 66 69 73 75 74 73 72 71 73 75 77 79 78 78 77 76 77 77 79 80
15 16 17 18 18 19 19 18 18 18 18 18 17 16 17 19 23 26 29 29 30 28 24 23 23 25 28 28 28 28 28 27 26 27 28 28 27 27 27 26 26 26 25 25 24 23 22 24 24 22 19 21 23 24 25 25 24 22 21 21 20 19 18 17 17 19 20 23 26 29 32 41 52 63 73 76 76 75 75 74 71 67 64 65 68 73 76 77 78 78 77 76 76 77 79 79 79 78 78 77 77 76 77
16 17 18 19 19 20 20 20 20 20 20 19 18 18 20 23 26 28 29 29 28 26 23 23 24 26 29 29 28 28 29 27 27 27 28 28 27 27 26 27 26 26 25 23 23 23 24 26 27 25 22 24 25 26 26 25 24 23 22 21 21 20 19 18 17 18 19 21 23 26 29 36 46 57 68 75 77 77 79 78 75 70 65 64 66 71 76 79 82 84 84 83 82 81 81 81 81 80 79 78 76 75 75
17 18 19 20 20 21 22 22 22 23 22 20 20 21 24 26 28 29 29 28 27 25 25 26 27 28 30 29 29 29 29 27 27 28 28 28 27 26 25 26 26 25 23 23 23 25 27 28 28 27 25 26 27 29 29 27 26 24 23 22 21 21 20 19 18 17 17 18 20 23 27 33 41 51 62 69 74 77 80 81 79 74 67 64 65 69 74 80 85 88 89 88 87 86 85 84 84 83 81 79 77 75 74
18 19 20 21 22 23 24 25 25 24 24 22 23 24 26 27 28 28 27 25 25 26 28 29 29 29 30 30 29 29 29 28 28 29 29 28 27 25 24 25 26 25 26 26 26 27 29 29 28 26 25 25 27 29 31 29 27 25 23 22 21 21 20 20 19 18 17 17 18 21 25 30 36 44 56 64 71 78 84 85 83 78 72 67 66 68 73 78 82 86 88 88 88 88 88 87 86 84 83 80 78 75 74
20 21 22 23 24 25 26 27 27 26 25 24 24 25 26 27 27 26 24 23 24 26 28 31 31 31 31 31 30 30 29 29 29 29 29 28 27 25 24 25 27 27 27 26 26 27 27 28 28 27 27 26 27 28 30 28 27 26 24 23 22 22 21 21 20 19 18 17 18 19 22 26 31 38 48 60 69 76 82 85 84 81 76 71 68 68 71 76 80 84 87 87 87 87 88 87 86 85 83 81 78 75 73
21 22 23 25 26 27 28 29 29 28 26 25 26 27 28 28 27 26 24 24 26 27 29 31 32 32 32 31 31 30 30 29 29 29 29 29 27 26 25 26 26 26 27 27 27 27 27 28 29 29 29 27 27 27 27 27 27 27 26 25 24 23 22 22 21 20 19 18 17 18 21 24 27 33 42 55 65 74 82 85 85 83 79 75 71 70 70 74 79 84 86 87 86 85 85 86 85 85 84 82 79 77 74
23 24 26 27 29 30 31 31 31 29 28 27 27 29 30 29 28 26 25 25 26 27 29 30 31 31 32 32 31 31 30 30 30 29 29 29 28 28 27 27 26 26 26 26 27 27 27 28 29 29 29 27 26 27 27 27 27 27 27 27 26 25 24 23 22 21 20 19 18 18 20 23 26 30 39 51 62 72 80 85 87 85 82 78 75 73 72 74 78 82 85 86 85 84 82 82 82 82 81 80 79 78 75
26 27 28 30 31 33 34 33 33 31 29 29 30 30 30 29 28 27 26 26 27 27 28 29 29 29 30 31 31 31 31 30 30 30 29 29 29 29 29 28 27 26 25 26 26 26 26 27 28 29 29 27 27 27 28 29 29 29 29 28 28 27 25 24 23 23 21 20 19 19 20 23 26 30 36 48 59 70 78 84 87 86 83 80 79 78 76 76 79 82 83 84 84 83 81 79 78 77 75 75 75 74 74